• In Portugal
  • List of Countries
  • For 7 days
  • Water Temperature
  • Satellite Maps
  • Weather Map
  • Weather Widgets
  • user-avatar
    Login

    Hourly Weather Bengazi

    Today, 15 August, Wednesday

    Time Temperature Precipitation Wind Pressure Humidity
    00:00 +30°C° 0 mm 2 mps 759 mmHg 66%
    01:00 +29°C° 0 mm 2 mps 759 mmHg 67%
    02:00 +29°C° 0 mm 2 mps 759 mmHg 68%
    03:00 +29°C° 0 mm 3 mps 759 mmHg 70%
    04:00 +29°C° 0 mm 3 mps 759 mmHg 71%
    05:00 +29°C° 0 mm 3 mps 759 mmHg 70%
    06:00 +29°C° 0 mm 3 mps 759 mmHg 68%
    07:00 +30°C° 0 mm 3 mps 759 mmHg 67%
    08:00 +31°C° 0 mm 3 mps 759 mmHg 62%
    09:00 +33°C° 0 mm 3 mps 759 mmHg 57%
    10:00 +34°C° 0 mm 3 mps 759 mmHg 52%
    11:00 +34°C° 0 mm 4 mps 759 mmHg 51%
    12:00 +35°C° 0 mm 4 mps 759 mmHg 49%
    13:00 +35°C° 0 mm 5 mps 759 mmHg 47%
    14:00 +35°C° 0 mm 5 mps 759 mmHg 48%
    15:00 +34°C° 0 mm 5 mps 759 mmHg 50%
    16:00 +34°C° 0 mm 6 mps 759 mmHg 51%
    17:00 +33°C° 0 mm 6 mps 759 mmHg 55%
    18:00 +32°C° 0 mm 5 mps 759 mmHg 60%
    19:00 +32°C° 0 mm 5 mps 759 mmHg 65%
    20:00 +30°C° 0 mm 5 mps 759 mmHg 66%
    21:00 +30°C° 0 mm 5 mps 759 mmHg 68%
    22:00 +30°C° 0 mm 4 mps 760 mmHg 69%
    23:00 +29°C° 0 mm 4 mps 760 mmHg 70%

    Tomorrow, 16 August, Thursday

    Time Temperature Precipitation Wind Pressure Humidity
    00:00 +29°C° 0 mm 3 mps 760 mmHg 71%
    01:00 +29°C° 0 mm 3 mps 760 mmHg 72%
    02:00 +29°C° 0 mm 3 mps 759 mmHg 73%
    03:00 +28°C° 0 mm 3 mps 759 mmHg 74%
    04:00 +28°C° 0 mm 2 mps 759 mmHg 75%
    05:00 +29°C° 0 mm 2 mps 759 mmHg 72%
    06:00 +29°C° 0 mm 2 mps 759 mmHg 69%
    07:00 +29°C° 0 mm 1 mps 759 mmHg 66%
    08:00 +30°C° 0 mm 1 mps 760 mmHg 60%
    09:00 +31°C° 0 mm 2 mps 760 mmHg 54%
    10:00 +34°C° 0 mm 2 mps 760 mmHg 48%
    11:00 +34°C° 0 mm 2 mps 760 mmHg 47%
    12:00 +35°C° 0 mm 3 mps 760 mmHg 45%
    13:00 +36°C° 0 mm 4 mps 759 mmHg 44%
    14:00 +35°C° 0 mm 4 mps 759 mmHg 45%
    15:00 +35°C° 0 mm 4 mps 759 mmHg 46%
    16:00 +35°C° 0 mm 5 mps 759 mmHg 47%
    17:00 +34°C° 0 mm 5 mps 759 mmHg 52%
    18:00 +33°C° 0 mm 4 mps 759 mmHg 56%
    19:00 +32°C° 0 mm 4 mps 759 mmHg 61%
    20:00 +31°C° 0 mm 3 mps 759 mmHg 62%
    21:00 +31°C° 0 mm 3 mps 759 mmHg 63%
    22:00 +30°C° 0 mm 3 mps 760 mmHg 64%
    23:00 +30°C° 0 mm 2 mps 759 mmHg 64%

    Day after tomorrow, 17 August, Friday

    Time Temperature Precipitation Wind Pressure Humidity
    00:00 +30°C° 0 mm 2 mps 759 mmHg 63%
    01:00 +30°C° 0 mm 2 mps 759 mmHg 63%
    02:00 +30°C° 0 mm 2 mps 759 mmHg 62%
    03:00 +30°C° 0 mm 2 mps 758 mmHg 61%
    04:00 +29°C° 0 mm 3 mps 758 mmHg 60%
    05:00 +30°C° 0 mm 2 mps 759 mmHg 58%
    06:00 +30°C° 0 mm 2 mps 759 mmHg 55%
    07:00 +31°C° 0 mm 2 mps 759 mmHg 53%
    08:00 +32°C° 0 mm 2 mps 760 mmHg 51%
    09:00 +34°C° 0 mm 2 mps 760 mmHg 49%
    10:00 +34°C° 0 mm 2 mps 760 mmHg 47%
    11:00 +35°C° 0 mm 3 mps 760 mmHg 46%
    12:00 +36°C° 0 mm 3 mps 760 mmHg 45%
    13:00 +36°C° 0 mm 4 mps 760 mmHg 44%
    14:00 +36°C° 0 mm 4 mps 759 mmHg 44%
    15:00 +36°C° 0 mm 5 mps 759 mmHg 44%
    16:00 +36°C° 0 mm 5 mps 759 mmHg 44%
    17:00 +35°C° 0 mm 5 mps 759 mmHg 46%
    18:00 +34°C° 0 mm 5 mps 759 mmHg 48%
    19:00 +33°C° 0 mm 5 mps 759 mmHg 50%
    20:00 +33°C° 0 mm 5 mps 759 mmHg 50%
    21:00 +33°C° 0 mm 5 mps 759 mmHg 50%
    22:00 +33°C° 0 mm 5 mps 759 mmHg 49%
    23:00 +33°C° 0 mm 5 mps 759 mmHg 50%

    18 August, Saturday

    Time Temperature Precipitation Wind Pressure Humidity
    00:00 +32°C° 0 mm 5 mps 759 mmHg 51%
    01:00 +32°C° 0 mm 4 mps 759 mmHg 51%
    02:00 +32°C° 0 mm 5 mps 759 mmHg 53%
    03:00 +30°C° 0 mm 5 mps 759 mmHg 55%
    04:00 +30°C° 0 mm 5 mps 759 mmHg 57%
    05:00 +30°C° 0 mm 5 mps 759 mmHg 57%
    06:00 +30°C° 0 mm 5 mps 759 mmHg 56%
    07:00 +32°C° 0 mm 5 mps 759 mmHg 56%
    08:00 +32°C° 0 mm 5 mps 760 mmHg 53%
    09:00 +33°C° 0 mm 4 mps 760 mmHg 49%
    10:00 +34°C° 0 mm 4 mps 760 mmHg 46%
    11:00 +35°C° 0 mm 5 mps 760 mmHg 45%
    12:00 +35°C° 0 mm 5 mps 759 mmHg 45%
    13:00 +36°C° 0 mm 6 mps 759 mmHg 45%
    14:00 +35°C° 0 mm 6 mps 759 mmHg 46%
    15:00 +35°C° 0 mm 7 mps 759 mmHg 48%
    16:00 +34°C° 0 mm 7 mps 759 mmHg 49%
    17:00 +33°C° 0 mm 7 mps 759 mmHg 54%
    18:00 +32°C° 0 mm 7 mps 759 mmHg 58%
    19:00 +30°C° 0 mm 7 mps 759 mmHg 63%
    20:00 +30°C° 0 mm 7 mps 760 mmHg 65%
    21:00 +30°C° 0 mm 6 mps 760 mmHg 67%
    22:00 +29°C° 0 mm 6 mps 760 mmHg 70%
    23:00 +29°C° 0 mm 6 mps 760 mmHg 71%

    19 August, Sunday

    Time Temperature Precipitation Wind Pressure Humidity
    00:00 +29°C° 0 mm 6 mps 759 mmHg 73%
    01:00 +28°C° 0 mm 6 mps 759 mmHg 74%
    02:00 +28°C° 0 mm 6 mps 759 mmHg 75%
    03:00 +28°C° 0 mm 6 mps 759 mmHg 76%
    04:00 +28°C° 0 mm 5 mps 759 mmHg 77%
    05:00 +28°C° 0 mm 5 mps 759 mmHg 75%
    06:00 +28°C° 0 mm 5 mps 759 mmHg 73%
    07:00 +29°C° 0 mm 5 mps 760 mmHg 71%
    08:00 +30°C° 0 mm 5 mps 760 mmHg 67%
    09:00 +32°C° 0 mm 5 mps 760 mmHg 62%
    10:00 +32°C° 0 mm 5 mps 760 mmHg 57%
    11:00 +33°C° 0 mm 5 mps 760 mmHg 56%
    12:00 +33°C° 0 mm 5 mps 759 mmHg 55%
    13:00 +34°C° 0 mm 6 mps 759 mmHg 54%
    14:00 +33°C° 0 mm 6 mps 759 mmHg 56%
    15:00 +33°C° 0 mm 6 mps 759 mmHg 58%
    16:00 +33°C° 0 mm 7 mps 758 mmHg 60%
    17:00 +32°C° 0 mm 7 mps 759 mmHg 63%
    18:00 +30°C° 0 mm 7 mps 759 mmHg 66%
    19:00 +30°C° 0 mm 6 mps 759 mmHg 69%
    20:00 +30°C° 0 mm 6 mps 759 mmHg 70%
    21:00 +29°C° 0 mm 6 mps 759 mmHg 72%
    22:00 +29°C° 0 mm 5 mps 759 mmHg 73%
    23:00 +29°C° 0 mm 5 mps 759 mmHg 74%

    20 August, Monday

    Time Temperature Precipitation Wind Pressure Humidity
    00:00 +29°C° 0 mm 5 mps 759 mmHg 75%
    01:00 +28°C° 0 mm 5 mps 759 mmHg 76%
    02:00 +28°C° 0 mm 5 mps 759 mmHg 76%
    03:00 +28°C° 0 mm 5 mps 758 mmHg 77%
    04:00 +28°C° 0 mm 5 mps 758 mmHg 78%
    05:00 +28°C° 0 mm 5 mps 759 mmHg 77%
    06:00 +29°C° 0 mm 5 mps 759 mmHg 75%
    07:00 +29°C° 0 mm 4 mps 759 mmHg 74%
    08:00 +30°C° 0 mm 4 mps 759 mmHg 69%
    09:00 +32°C° 0 mm 5 mps 759 mmHg 63%
    10:00 +33°C° 0 mm 5 mps 759 mmHg 58%
    11:00 +33°C° 0 mm 5 mps 759 mmHg 57%
    12:00 +33°C° 0 mm 5 mps 759 mmHg 57%
    13:00 +34°C° 0 mm 6 mps 758 mmHg 56%
    14:00 +34°C° 0 mm 6 mps 758 mmHg 58%
    15:00 +33°C° 0 mm 6 mps 758 mmHg 59%
    16:00 +33°C° 0 mm 7 mps 758 mmHg 61%
    17:00 +32°C° 0 mm 7 mps 758 mmHg 64%
    18:00 +32°C° 0 mm 6 mps 759 mmHg 67%
    19:00 +30°C° 0 mm 6 mps 759 mmHg 70%
    20:00 +30°C° 0 mm 6 mps 759 mmHg 71%
    21:00 +30°C° 0 mm 5 mps 759 mmHg 71%
    22:00 +30°C° 0 mm 5 mps 760 mmHg 71%
    23:00 +29°C° 0 mm 5 mps 759 mmHg 73%
    Show more